Weather Roundup
Issued by NWS

Home | Current Version | Previous Version | Text Only | Print | Product List | Glossary On
Versions: 1 2 3 4 5 6 7 8 9 10 11 12 13 14 15 16 17 18 19 20 21 22 23 24 25 26 27 28 29 30 31 32 33 34 35 36 37 38 39 40 41 42 43 44 45 46 47 48 49 50
818
NZUS93 KARX 130910
HRRWXR

CURRENT HOURLY OBSERVATIONS ACROSS
MUCH OF THE UPPER MISSISSIPPI VALLEY
NATIONAL WEATHER SERVICE LA CROSSE WI
300 AM CST SAT FEB 13 2016


...SOUTHEAST MINNESOTA...


CITY           SKY/WX    TMP DP  RH WIND       PRES   REMARKS
ROCHESTER      CLOUDY    -7 -14  71 NW12      30.57R WCI -26
ROCHESTER/MAYO FAIR      -2 -10  69 W7        30.59R WCI -15
WINONA         PTCLDY     3 -13  47 N9        30.64R WCI -11
AUSTIN         CLOUDY    -6 -11  77 N3        30.58S
ALBERT LEA     CLOUDY    -4  -9  77 CALM      30.59R
DODGE CENTER   CLOUDY    -6 -13  71 NW7       30.57R WCI -20
PRESTON        CLOUDY    -6 -14  68 N9        30.56S WCI -22
OWATONNA       CLOUDY    -8 -15  71 CALM      30.60S
FARIBAULT      PTCLDY    -6 -15  65 NW3       30.61S
$$

...ELSEWHERE IN MINNESOTA...


CITY           SKY/WX    TMP DP  RH WIND       PRES   REMARKS
MINNEAPOLIS    CLOUDY    -4 -12  68 NW6       30.65R WCI -16
INTNL FALLS    CLOUDY   -18 -24  74 W5        30.57R WCI -31
DULUTH         CLOUDY   -13 -21  67 NW9       30.52F WCI -31
RED WING       PTCLDY    -2 -15  55 NW2       30.63R
REDWOOD FALLS  CLOUDY    -5 -10  79 NW5       30.64S WCI -16
MANKATO        CLOUDY    -4 -11  71 NW5       30.63R WCI -15
WORTHINGTON    CLOUDY    -8 -15  71 NW6       30.58F WCI -21
FAIRMONT       CLOUDY    -4  -9  77 NW8       30.60S WCI -19
$$

...SOUTHWEST WISCONSIN...


CITY           SKY/WX    TMP DP  RH WIND       PRES   REMARKS
LA CROSSE      PTCLDY    -3 -15  56 N5        30.62R WCI -13
PRAIRIE DU CHI CLOUDY     1 -13  53 NW3       30.62R
BOSCOBEL       MOCLDY    -5 -13  68 CALM      30.61R
LONE ROCK      MOCLDY    -1 -14  53 W6        30.59R WCI -13
PLATTEVILLE    PTCLDY     0 -10  64 NW7       30.56R WCI -13
FORT MC COY    PTCLDY    -2 -14  55 NW6       30.59S WCI -14
CAMP DOUGLAS   PTCLDY    -8 -17  64 W8        30.56R WCI -24
VIROQUA        FAIR      -5 -16  59 NW12      30.52S WCI -23
WIS DELLS      PTCLDY    -2 -17  49 NW6       30.54R WCI -14
$$

...ELSEWHERE IN WISCONSIN...


CITY           SKY/WX    TMP DP  RH WIND       PRES   REMARKS
MILWAUKEE      CLEAR      2 -13  49 NW14G24   30.50R WCI -16
MADISON        CLEAR      0 -15  49 NW9       30.54R WCI -15
GREEN BAY      PTCLDY    -3 -13  62 W12       30.49R WCI -21
EAU CLAIRE     PTCLDY    -4 -18  51 NW6       30.59R WCI -16
BLACK RVR FLS  FAIR      -3 -18  50 NW5       30.59R WCI -14
MEDFORD        CLOUDY    -8 -17  64 NW8       30.46R WCI -25
WAUSAU         CLOUDY    -4 -14  62 NW12      30.47R WCI -22
WIS RAPIDS     CLOUDY    -4 -18  51 NW9       30.53R WCI -20
MARSHFIELD     CLOUDY    -7 -19  56 NW14      30.48S WCI -28
RICE LAKE      CLOUDY    -7 -18  59 W5        30.59R WCI -18
$$

...NORTHEAST IOWA...


CITY           SKY/WX    TMP DP  RH WIND       PRES   REMARKS
WATERLOO       CLOUDY    -3 -10  72 NW7       30.62R WCI -16
DUBUQUE        CLOUDY     2 -10  57 NW10      30.56R WCI -14
DECORAH        PTCLDY    -4 -13  65 CALM      30.57R
MASON CITY     CLOUDY    -5 -10  79 NW13      30.61S WCI -24
CHARLES CITY   CLOUDY    -2 -13  60 NW10      30.60S WCI -19
OELWEIN        CLOUDY    -4 -11  71 NW9       30.59S WCI -20
$$

...ELSEWHERE IN IOWA...


CITY           SKY/WX    TMP DP  RH WIND       PRES   REMARKS
DES MOINES     CLOUDY     2  -5  72 NW7       30.65R WCI -11
IOWA CITY      CLOUDY     6  -6  57 N7        30.64S WCI  -6
FORT DODGE     CLOUDY    -4 -11  71 N3        30.63F
MARSHALLTOWN   CLOUDY    -2  -6  83 NW7       30.62R WCI -15
CEDAR RAPIDS   CLOUDY     3  -5  69 NW9       30.60S WCI -12
$$

...NORTHERN ILLINOIS...


CITY           SKY/WX    TMP DP  RH WIND       PRES   REMARKS
CHICAGO-OHARE  PTCLDY     4 -10  52 NW15      30.52R WCI -14
CHICAGO-MIDWAY CLEAR      6 -12  43 NW16      30.53R WCI -12
MOLINE         PTCLDY     7  -7  52 N8        30.61R WCI  -6
ROCKFORD       CLEAR      4 -10  52 N12       30.58R WCI -12
PEORIA         CLEAR      8  -5  55 N8        30.59R WCI  -4
$$

NOTE: "FAIR" INDICATES FEW OR NO CLOUDS BELOW 12,000 FEET WITH NO
SIGNIFICANT WEATHER AND/OR OBSTRUCTIONS TO VISIBILITY. WIND
SPEEDS ARE IN MILES-PER-HOUR.




USA.gov is the U.S. government's official web portal to all federal, state and local government web resources and services.